Location: Montr�al
(45.5000°N, 73.5830°W)
Time: 04:11:13
(UTC-04:00)

Cosmos 1151 Rocket - Visible Passes

Search period start: 01 October 2014 00:00
Search period end: 11 October 2014 00:00
Orbit: 595 x 618 km, 82.5° (Epoch: 30 September)

Date Brightness Start Highest point End Pass type
(mag) Time Alt. Az. Time Alt. Az. Time Alt. Az.
01 Oct 6.6 05:40:45 10° NE 05:41:51 11° ENE 05:42:57 10° ENE visible
01 Oct 3.1 19:47:09 10° S 19:51:17 52° E 19:55:28 10° NNE visible
01 Oct 5.9 21:26:38 10° WSW 21:29:15 16° WNW 21:31:52 10° NNW visible
02 Oct 6.1 05:52:37 10° NNE 05:55:31 17° ENE 05:58:25 10° ESE visible
02 Oct 2.9 20:00:22 10° S 20:04:38 88° E 20:08:57 10° N visible
03 Oct 5.5 06:05:23 10° NNE 06:09:07 27° ENE 06:12:50 10° SE visible
03 Oct 3.7 20:13:52 10° SSW 20:18:02 54° WNW 20:22:17 10° N visible
04 Oct 4.5 06:18:27 10° N 06:22:38 43° ENE 06:26:48 10° SSE visible
04 Oct 4.1 18:50:45 10° SE 18:54:06 23° E 18:57:29 10° NE visible
04 Oct 4.8 20:27:39 10° SW 20:31:31 33° WNW 20:35:26 10° N visible
05 Oct 3.5 19:03:24 10° SSE 19:07:20 37° E 19:11:19 10° NNE visible
05 Oct 5.6 20:41:50 10° WSW 20:45:05 21° WNW 20:48:22 10° NNW visible
06 Oct 6.4 05:09:18 10° NE 05:11:21 13° ENE 05:13:23 10° E visible
06 Oct 3.0 19:16:25 10° S 19:20:38 63° E 19:24:54 10° NNE visible
06 Oct 6.3 20:56:37 10° W 20:58:43 13° WNW 21:00:50 10° NW visible
07 Oct 5.9 05:21:42 10° NNE 05:24:59 20° ENE 05:28:16 10° ESE visible
07 Oct 3.2 19:29:43 10° SSW 19:34:00 77° W 19:38:20 10° N visible
08 Oct 5.0 05:34:36 10° N 05:38:33 32° ENE 05:42:29 10° SE visible
08 Oct 4.2 19:43:19 10° SSW 19:47:26 45° WNW 19:51:36 10° N visible
09 Oct 4.0 05:47:44 10° N 05:52:02 52° ENE 05:56:19 10° SSE visible
09 Oct 5.2 19:57:14 10° SW 20:00:56 28° WNW 20:04:41 10° NNW visible
10 Oct 3.1 06:01:03 10° N 06:05:28 87° E 06:09:51 10° S visible
10 Oct 6.0 20:11:34 10° WSW 20:14:31 18° WNW 20:17:29 10° NNW visible
